| time (UTC) | temp F | wind direction | speed MPH | gust MPH | rain 1hr in | rain 24hr in | rain mn in | humidity % | barometer mb |
| 20260505034026 | 75 | 170 | 6.0 | 16.0 | 0.00 | 0.00 | 0.00 | 68 | 1006.4 |
| 20260505033021 | 75 | 167 | 5.0 | 16.0 | 0.00 | 0.00 | 0.00 | 68 | 1006.5 |
| 20260505032028 | 75 | 164 | 5.0 | 11.0 | 0.00 | 0.00 | 0.00 | 68 | 1006.5 |
| 20260505031045 | 75 | 169 | 5.0 | 13.0 | 0.00 | 0.00 | 0.00 | 67 | 1006.8 |
| 20260505030022 | 75 | 168 | 5.0 | 11.0 | 0.00 | 0.00 | 0.00 | 67 | 1006.6 |
| 20260505025017 | 75 | 160 | 6.0 | 14.0 | 0.00 | 0.00 | 0.00 | 67 | 1006.5 |
| 20260505024027 | 75 | 158 | 5.0 | 13.0 | 0.00 | 0.00 | 0.00 | 67 | 1006.4 |
| 20260505023021 | 75 | 165 | 5.0 | 13.0 | 0.00 | 0.00 | 0.00 | 66 | 1006.3 |
| 20260505022016 | 76 | 172 | 6.0 | 15.0 | 0.00 | 0.00 | 0.00 | 65 | 1006.2 |
| 20260505021026 | 76 | 148 | 4.0 | 17.0 | 0.00 | 0.00 | 0.00 | 65 | 1006.3 |
| 20260505020041 | 76 | 170 | 5.0 | 14.0 | 0.00 | 0.00 | 0.00 | 64 | 1006.2 |
| 20260505015056 | 76 | 148 | 5.0 | 18.0 | 0.00 | 0.00 | 0.00 | 64 | 1006.3 |
| 20260505014025 | 77 | 151 | 4.0 | 11.0 | 0.00 | 0.00 | 0.00 | 63 | 1006.3 |
| 20260505013020 | 77 | 155 | 3.0 | 10.0 | 0.00 | 0.00 | 0.00 | 62 | 1006.2 |
| 20260505012029 | 77 | 144 | 4.0 | 8.0 | 0.00 | 0.00 | 0.00 | 61 | 1006.2 |
| 20260505011024 | 78 | 163 | 4.0 | 10.0 | 0.00 | 0.00 | 0.00 | 60 | 1006.2 |
| 20260505010019 | 78 | 158 | 3.0 | 10.0 | 0.00 | 0.00 | 0.00 | 60 | 1006.3 |
| 20260505005029 | 79 | 157 | 5.0 | 11.0 | 0.00 | 0.00 | 0.00 | 59 | 1006.2 |
| 20260505004044 | 79 | 167 | 5.0 | 18.0 | 0.00 | 0.00 | 0.00 | 58 | 1006.4 |
| 20260505003019 | 80 | 140 | 4.0 | 13.0 | 0.00 | 0.00 | 0.00 | 57 | 1006.4 |
| 20260505002050 | 80 | 160 | 5.0 | 15.0 | 0.00 | 0.00 | 0.00 | 55 | 1006.5 |
| 20260505001024 | 81 | 157 | 6.0 | 13.0 | 0.00 | 0.00 | 0.00 | 54 | 1006.7 |
| 20260505000020 | 82 | 171 | 5.0 | 13.0 | 0.00 | 0.00 | 0.00 | 53 | 1006.9 |
| 20260504235030 | 82 | 180 | 7.0 | 17.0 | 0.00 | 0.00 | 0.00 | 53 | 1006.7 |
| 20260504234025 | 83 | 178 | 6.0 | 16.0 | 0.00 | 0.00 | 0.00 | 52 | 1006.9 |
| 20260504233019 | 83 | 171 | 5.0 | 19.0 | 0.00 | 0.00 | 0.00 | 51 | 1006.9 |
| 20260504232030 | 83 | 161 | 7.0 | 18.0 | 0.00 | 0.00 | 0.00 | 50 | 1007.0 |
| 20260504231024 | 84 | 168 | 6.0 | 18.0 | 0.00 | 0.00 | 0.00 | 49 | 1007.0 |
| 20260504230019 | 84 | 159 | 7.0 | 18.0 | 0.00 | 0.00 | 0.00 | 49 | 1007.2 |
| 20260504225029 | 85 | 154 | 5.0 | 16.0 | 0.00 | 0.00 | 0.00 | 48 | 1007.2 |
| 20260504224024 | 84 | 150 | 9.0 | 17.0 | 0.00 | 0.00 | 0.00 | 48 | 1007.4 |
| 20260504223020 | 85 | 162 | 8.0 | 18.0 | 0.00 | 0.00 | 0.00 | 48 | 1007.5 |
| 20260504222015 | 85 | 152 | 8.0 | 21.0 | 0.00 | 0.00 | 0.00 | 48 | 1007.4 |
| 20260504221025 | 84 | 155 | 9.0 | 21.0 | 0.00 | 0.00 | 0.00 | 47 | 1007.4 |
| 20260504220021 | 85 | 159 | 8.0 | 21.0 | 0.00 | 0.00 | 0.00 | 47 | 1007.7 |
| 20260504215036 | 86 | 164 | 9.0 | 21.0 | 0.00 | 0.00 | 0.00 | 46 | 1007.7 |
| 20260504214026 | 87 | 185 | 8.0 | 26.0 | 0.00 | 0.00 | 0.00 | 45 | 1007.8 |
| 20260504213021 | 87 | 168 | 8.0 | 21.0 | 0.00 | 0.00 | 0.00 | 45 | 1007.9 |
| 20260504212016 | 87 | 161 | 7.0 | 19.0 | 0.00 | 0.00 | 0.00 | 45 | 1008.0 |
| 20260504211027 | 87 | 162 | 7.0 | 17.0 | 0.00 | 0.00 | 0.00 | 45 | 1008.2 |
| 20260504210022 | 87 | 168 | 8.0 | 22.0 | 0.00 | 0.00 | 0.00 | 45 | 1008.5 |
| 20260504205037 | 87 | 161 | 7.0 | 18.0 | 0.00 | 0.00 | 0.00 | 45 | 1008.7 |
| 20260504204028 | 86 | 149 | 7.0 | 17.0 | 0.00 | 0.00 | 0.00 | 45 | 1008.7 |
| 20260504203023 | 87 | 144 | 8.0 | 18.0 | 0.00 | 0.00 | 0.00 | 45 | 1009.0 |
| 20260504202018 | 87 | 151 | 6.0 | 18.0 | 0.00 | 0.00 | 0.00 | 44 | 1009.2 |
| 20260504201028 | 87 | 157 | 6.0 | 18.0 | 0.00 | 0.00 | 0.00 | 44 | 1009.5 |
| 20260504200023 | 86 | 147 | 6.0 | 15.0 | 0.00 | 0.00 | 0.00 | 45 | 1009.9 |
| 20260504195018 | 86 | 178 | 7.0 | 17.0 | 0.00 | 0.00 | 0.00 | 45 | 1010.0 |
| 20260504194028 | 86 | 167 | 7.0 | 15.0 | 0.00 | 0.00 | 0.00 | 45 | 1010.1 |
| 20260504193023 | 85 | 154 | 8.0 | 23.0 | 0.00 | 0.00 | 0.00 | 45 | 1010.3 |
| 20260504192018 | 86 | 162 | 6.0 | 19.0 | 0.00 | 0.00 | 0.00 | 44 | 1010.2 |
| 20260504191028 | 86 | 158 | 9.0 | 19.0 | 0.00 | 0.00 | 0.00 | 44 | 1010.6 |
| 20260504190023 | 85 | 186 | 8.0 | 21.0 | 0.00 | 0.00 | 0.00 | 45 | 1010.8 |
| 20260504185018 | 85 | 148 | 8.0 | 18.0 | 0.00 | 0.00 | 0.00 | 45 | 1010.7 |
| 20260504184049 | 85 | 148 | 6.0 | 17.0 | 0.00 | 0.00 | 0.00 | 45 | 1010.8 |
| 20260504183024 | 85 | 160 | 6.0 | 17.0 | 0.00 | 0.00 | 0.00 | 45 | 1010.9 |
| 20260504182039 | 84 | 171 | 6.0 | 19.0 | 0.00 | 0.00 | 0.00 | 45 | 1011.2 |
| 20260504181029 | 83 | 163 | 7.0 | 18.0 | 0.00 | 0.00 | 0.00 | 45 | 1011.4 |
| 20260504180024 | 83 | 182 | 9.0 | 21.0 | 0.00 | 0.00 | 0.00 | 45 | 1011.4 |
| 20260504175020 | 83 | 161 | 9.0 | 29.0 | 0.00 | 0.00 | 0.00 | 44 | 1011.6 |
| 20260504174015 | 83 | 161 | 8.0 | 18.0 | 0.00 | 0.00 | 0.00 | 45 | 1011.7 |
| 20260504173045 | 82 | 169 | 7.0 | 15.0 | 0.00 | 0.00 | 0.00 | 45 | 1011.8 |
| 20260504172020 | 82 | 174 | 7.0 | 21.0 | 0.00 | 0.00 | 0.00 | 45 | 1012.1 |
| 20260504171015 | 81 | 168 | 7.0 | 17.0 | 0.00 | 0.00 | 0.00 | 45 | 1012.2 |
| 20260504151018 | 75 | 174 | 5.0 | 15.0 | 0.00 | 0.00 | 0.00 | 54 | 1013.5 |
| 20260504141020 | 81 | 182 | 6.0 | 13.0 | 0.00 | 0.00 | 0.00 | 43 | 1013.9 |
| 20260504081028 | 61 | 180 | 5.0 | 13.0 | 0.00 | 0.00 | 0.00 | 69 | 1014.4 |
| 20260504045023 | 65 | 171 | 4.0 | 10.0 | 0.00 | 0.00 | 0.00 | 59 | 1016.2 |
| 20260504044018 | 65 | 168 | 4.0 | 10.0 | 0.00 | 0.00 | 0.00 | 59 | 1016.3 |
| 20260504043028 | 65 | 164 | 3.0 | 8.0 | 0.00 | 0.00 | 0.00 | 58 | 1016.3 |
| 20260504042022 | 66 | 167 | 2.0 | 4.0 | 0.00 | 0.00 | 0.00 | 57 | 1016.4 |
| 20260504041042 | 66 | 168 | 3.0 | 9.0 | 0.00 | 0.00 | 0.00 | 56 | 1016.4 |
| 20260504040027 | 66 | 160 | 3.0 | 8.0 | 0.00 | 0.00 | 0.00 | 55 | 1016.4 |
| 20260504035022 | 67 | 161 | 2.0 | 8.0 | 0.00 | 0.00 | 0.00 | 54 | 1016.5 |